Time,TemperatureF,DewpointF,PressureIn,WindDirection,WindDirectionDegrees,WindSpeedMPH,WindSpeedGustMPH,Humidity,HourlyPrecipIn,Conditions,Clouds,dailyrainin,SolarRadiationWatts/m^2,SoftwareType,DateUTC
2014-03-11 00:12:00,31.0,21.0,-100.00,North,-999,0.0,5.0,67,0.00,,,0.13,0.000000,,2014-03-11 07:12:00,
2014-03-11 00:22:00,31.0,21.0,-100.00,North,-999,0.0,5.0,67,0.00,,,0.13,0.000000,,2014-03-11 07:22:00,
2014-03-11 00:32:00,31.0,21.0,-100.00,North,-999,0.0,5.0,67,0.00,,,0.13,0.000000,,2014-03-11 07:32:00,
2014-03-11 00:42:00,31.0,21.0,-100.00,North,-999,0.0,5.0,67,0.00,,,0.13,0.000000,,2014-03-11 07:42:00,
2014-03-11 01:12:00,28.0,20.0,-100.00,North,-999,0.0,3.0,73,0.00,,,0.13,0.000000,,2014-03-11 08:12:00,
2014-03-11 01:22:00,28.0,20.0,-100.00,North,-999,0.0,3.0,73,0.00,,,0.13,0.000000,,2014-03-11 08:22:00,
2014-03-11 01:32:00,28.0,20.0,-100.00,North,-999,0.0,3.0,73,0.00,,,0.13,0.000000,,2014-03-11 08:32:00,
2014-03-11 01:42:00,28.0,20.0,-100.00,North,-999,0.0,3.0,73,0.00,,,0.13,0.000000,,2014-03-11 08:42:00,
2014-03-11 02:12:00,27.0,21.0,-100.00,North,-999,0.0,0.0,79,0.00,,,0.13,0.000000,,2014-03-11 09:12:00,
2014-03-11 02:22:00,27.0,21.0,-100.00,North,-999,0.0,0.0,79,0.00,,,0.13,0.000000,,2014-03-11 09:22:00,
2014-03-11 02:33:00,27.0,21.0,-100.00,North,-999,0.0,0.0,79,0.00,,,0.13,0.000000,,2014-03-11 09:33:00,
2014-03-11 02:43:00,27.0,21.0,-100.00,North,-999,0.0,0.0,79,0.00,,,0.13,0.000000,,2014-03-11 09:43:00,
2014-03-11 03:12:00,26.0,21.0,-100.00,North,-999,0.0,0.0,81,0.00,,,0.13,0.000000,,2014-03-11 10:12:00,
2014-03-11 03:22:00,26.0,21.0,-100.00,North,-999,0.0,0.0,81,0.00,,,0.13,0.000000,,2014-03-11 10:22:00,
2014-03-11 03:32:00,26.0,21.0,-100.00,North,-999,0.0,0.0,81,0.00,,,0.13,0.000000,,2014-03-11 10:32:00,
2014-03-11 03:43:00,26.0,21.0,-100.00,North,-999,0.0,0.0,81,0.00,,,0.13,0.000000,,2014-03-11 10:43:00,
2014-03-11 04:11:00,25.0,21.0,-100.00,North,-999,0.0,0.0,85,0.00,,,0.13,0.000000,,2014-03-11 11:11:00,
2014-03-11 04:22:00,25.0,21.0,-100.00,North,-999,0.0,0.0,85,0.00,,,0.13,0.000000,,2014-03-11 11:22:00,
2014-03-11 04:33:00,25.0,21.0,-100.00,North,-999,0.0,0.0,85,0.00,,,0.13,0.000000,,2014-03-11 11:33:00,
2014-03-11 04:42:00,25.0,21.0,-100.00,North,-999,0.0,0.0,85,0.00,,,0.13,0.000000,,2014-03-11 11:42:00,
2014-03-11 05:12:00,25.0,21.0,-100.00,North,-999,0.0,0.0,85,0.00,,,-99.99,0.000000,,2014-03-11 12:12:00,
2014-03-11 05:22:00,25.0,21.0,-100.00,North,-999,0.0,0.0,85,0.00,,,-99.99,0.000000,,2014-03-11 12:22:00,
2014-03-11 05:32:00,25.0,21.0,-100.00,North,-999,0.0,0.0,85,0.00,,,-99.99,0.000000,,2014-03-11 12:32:00,
2014-03-11 05:42:00,25.0,21.0,-100.00,North,-999,0.0,0.0,85,0.00,,,-99.99,0.000000,,2014-03-11 12:42:00,
2014-03-11 06:11:00,24.0,21.0,-100.00,North,-999,0.0,0.0,87,0.00,,,0.13,0.000000,,2014-03-11 13:11:00,
2014-03-11 06:22:00,24.0,21.0,-100.00,North,-999,0.0,0.0,87,0.00,,,0.13,0.000000,,2014-03-11 13:22:00,
2014-03-11 06:32:00,24.0,21.0,-100.00,North,-999,0.0,0.0,87,0.00,,,0.13,0.000000,,2014-03-11 13:32:00,
2014-03-11 06:42:00,24.0,21.0,-100.00,North,-999,0.0,0.0,87,0.00,,,0.13,0.000000,,2014-03-11 13:42:00,
2014-03-11 07:11:00,24.0,21.0,-100.00,North,-999,0.0,0.0,88,0.00,,,0.13,0.000000,,2014-03-11 14:11:00,
2014-03-11 07:22:00,24.0,21.0,-100.00,North,-999,0.0,0.0,88,0.00,,,0.13,0.000000,,2014-03-11 14:22:00,
2014-03-11 07:32:00,24.0,21.0,-100.00,North,-999,0.0,0.0,88,0.00,,,0.13,0.000000,,2014-03-11 14:32:00,
2014-03-11 07:42:00,24.0,21.0,-100.00,North,-999,0.0,0.0,88,0.00,,,0.13,0.000000,,2014-03-11 14:42:00,
2014-03-11 08:12:00,23.0,20.0,-100.00,North,-999,0.0,4.0,88,0.00,,,0.13,6.000000,,2014-03-11 15:12:00,
2014-03-11 08:33:00,23.0,20.0,-100.00,North,-999,0.0,4.0,88,0.00,,,0.13,6.000000,,2014-03-11 15:33:00,
2014-03-11 08:43:00,23.0,20.0,-100.00,North,-999,0.0,4.0,88,0.00,,,0.13,6.000000,,2014-03-11 15:43:00,
2014-03-11 09:13:00,33.0,21.0,-100.00,North,-999,0.0,5.0,61,0.00,,,0.12,208.000000,,2014-03-11 16:13:00,
2014-03-11 09:24:00,33.0,21.0,-100.00,North,-999,0.0,5.0,61,0.00,,,0.12,208.000000,,2014-03-11 16:24:00,
2014-03-11 09:33:00,33.0,21.0,-100.00,North,-999,0.0,5.0,61,0.00,,,0.12,208.000000,,2014-03-11 16:33:00,
2014-03-11 09:43:00,33.0,21.0,-100.00,North,-999,0.0,5.0,61,0.00,,,0.12,208.000000,,2014-03-11 16:43:00,
2014-03-11 10:13:00,38.0,21.0,-100.00,North,-999,0.0,5.0,49,0.00,,,0.03,459.000000,,2014-03-11 17:13:00,
2014-03-11 10:22:00,38.0,21.0,-100.00,North,-999,0.0,5.0,49,0.00,,,0.03,459.000000,,2014-03-11 17:22:00,
2014-03-11 10:33:00,38.0,21.0,-100.00,North,-999,0.0,5.0,49,0.00,,,0.03,459.000000,,2014-03-11 17:33:00,
2014-03-11 10:43:00,38.0,21.0,-100.00,North,-999,0.0,5.0,49,0.00,,,0.03,459.000000,,2014-03-11 17:43:00,
2014-03-11 11:12:00,37.0,21.0,-100.00,NNE,13,3.0,12.0,51,0.00,,,0.00,553.000000,,2014-03-11 18:12:00,
2014-03-11 11:22:00,37.0,21.0,-100.00,NNE,13,3.0,12.0,51,0.00,,,0.00,553.000000,,2014-03-11 18:22:00,
2014-03-11 11:32:00,37.0,21.0,-100.00,NNE,13,3.0,12.0,51,0.00,,,0.00,553.000000,,2014-03-11 18:32:00,
2014-03-11 11:42:00,37.0,21.0,-100.00,NNE,13,3.0,12.0,51,0.00,,,0.00,553.000000,,2014-03-11 18:42:00,
2014-03-11 12:11:00,38.0,22.0,-100.00,NNE,13,4.0,15.0,53,0.00,,,0.00,468.000000,,2014-03-11 19:11:00,
2014-03-11 12:21:00,38.0,22.0,-100.00,NNE,13,4.0,15.0,53,0.00,,,0.00,468.000000,,2014-03-11 19:21:00,
2014-03-11 12:32:00,38.0,22.0,-100.00,NNE,13,4.0,15.0,53,0.00,,,0.00,468.000000,,2014-03-11 19:32:00,
2014-03-11 12:42:00,38.0,22.0,-100.00,NNE,13,4.0,15.0,53,0.00,,,0.00,468.000000,,2014-03-11 19:42:00,
2014-03-11 13:12:00,38.0,21.0,-100.00,NNE,15,5.0,14.0,49,0.00,,,0.00,493.000000,,2014-03-11 20:12:00,
2014-03-11 13:22:00,38.0,21.0,-100.00,NNE,15,5.0,14.0,49,0.00,,,0.00,493.000000,,2014-03-11 20:22:00,
2014-03-11 13:32:00,38.0,21.0,-100.00,NNE,15,5.0,14.0,49,0.00,,,0.00,493.000000,,2014-03-11 20:32:00,
2014-03-11 13:42:00,38.0,21.0,-100.00,NNE,15,5.0,14.0,49,0.00,,,0.00,493.000000,,2014-03-11 20:42:00,
2014-03-11 14:12:00,42.0,19.0,-100.00,East,101,5.0,15.0,40,0.00,,,0.00,618.000000,,2014-03-11 21:12:00,
2014-03-11 14:22:00,42.0,19.0,-100.00,East,101,5.0,15.0,40,0.00,,,0.00,618.000000,,2014-03-11 21:22:00,
2014-03-11 14:33:00,42.0,19.0,-100.00,East,101,5.0,15.0,40,0.00,,,0.00,618.000000,,2014-03-11 21:33:00,
2014-03-11 14:43:00,42.0,19.0,-100.00,East,101,5.0,15.0,40,0.00,,,0.00,618.000000,,2014-03-11 21:43:00,
2014-03-11 15:13:00,42.0,18.0,-100.00,East,97,6.0,16.0,37,0.00,,,0.00,788.000000,,2014-03-11 22:13:00,
2014-03-11 15:23:00,42.0,18.0,-100.00,East,97,6.0,16.0,37,0.00,,,0.00,788.000000,,2014-03-11 22:23:00,
2014-03-11 15:33:00,42.0,18.0,-100.00,East,97,6.0,16.0,37,0.00,,,0.00,788.000000,,2014-03-11 22:33:00,
2014-03-11 15:43:00,42.0,18.0,-100.00,East,97,6.0,16.0,37,0.00,,,0.00,788.000000,,2014-03-11 22:43:00,
2014-03-11 16:12:00,44.0,16.0,-100.00,ENE,70,2.0,19.0,32,0.00,,,0.00,777.000000,,2014-03-11 23:12:00,
2014-03-11 16:22:00,44.0,16.0,-100.00,ENE,70,2.0,19.0,32,0.00,,,0.00,777.000000,,2014-03-11 23:22:00,
2014-03-11 16:33:00,44.0,16.0,-100.00,ENE,70,2.0,19.0,32,0.00,,,0.00,777.000000,,2014-03-11 23:33:00,
2014-03-11 16:42:00,44.0,16.0,-100.00,ENE,70,2.0,19.0,32,0.00,,,0.00,777.000000,,2014-03-11 23:42:00,
2014-03-11 17:12:00,42.0,12.0,-100.00,NNW,348,6.0,17.0,29,0.00,,,0.00,429.000000,,2014-03-12 00:12:00,
2014-03-11 17:22:00,42.0,12.0,-100.00,NNW,348,6.0,17.0,29,0.00,,,0.00,429.000000,,2014-03-12 00:22:00,
2014-03-11 17:32:00,42.0,12.0,-100.00,NNW,348,6.0,17.0,29,0.00,,,0.00,429.000000,,2014-03-12 00:32:00,
2014-03-11 17:42:00,42.0,12.0,-100.00,NNW,348,6.0,17.0,29,0.00,,,0.00,429.000000,,2014-03-12 00:42:00,
2014-03-11 18:11:00,45.0,12.0,-100.00,East,81,4.0,14.0,26,0.00,,,0.00,331.000000,,2014-03-12 01:11:00,
2014-03-11 18:22:00,45.0,12.0,-100.00,East,81,4.0,14.0,26,0.00,,,0.00,331.000000,,2014-03-12 01:22:00,
2014-03-11 18:32:00,45.0,12.0,-100.00,East,81,4.0,14.0,26,0.00,,,0.00,331.000000,,2014-03-12 01:32:00,
2014-03-11 18:42:00,45.0,12.0,-100.00,East,81,4.0,14.0,26,0.00,,,0.00,331.000000,,2014-03-12 01:42:00,
2014-03-11 19:12:00,39.0,6.0,-100.00,ENE,58,4.0,12.0,25,0.00,,,0.00,120.000000,,2014-03-12 02:12:00,
2014-03-11 19:22:00,39.0,6.0,-100.00,ENE,58,4.0,12.0,25,0.00,,,0.00,120.000000,,2014-03-12 02:22:00,
2014-03-11 19:32:00,39.0,6.0,-100.00,ENE,58,4.0,12.0,25,0.00,,,0.00,120.000000,,2014-03-12 02:32:00,
2014-03-11 19:42:00,39.0,6.0,-100.00,ENE,58,4.0,12.0,25,0.00,,,0.00,120.000000,,2014-03-12 02:42:00,
2014-03-11 20:12:00,35.0,8.0,-100.00,NE,55,1.0,16.0,32,0.00,,,0.00,3.000000,,2014-03-12 03:12:00,
2014-03-11 20:21:00,35.0,8.0,-100.00,NE,55,1.0,16.0,32,0.00,,,0.00,3.000000,,2014-03-12 03:21:00,
2014-03-11 20:33:00,35.0,8.0,-100.00,NE,55,1.0,16.0,32,0.00,,,0.00,3.000000,,2014-03-12 03:33:00,
2014-03-11 20:42:00,35.0,8.0,-100.00,NE,55,1.0,16.0,32,0.00,,,0.00,3.000000,,2014-03-12 03:42:00,
2014-03-11 21:13:00,33.0,8.0,-100.00,NE,52,4.0,13.0,34,0.00,,,0.00,0.000000,,2014-03-12 04:13:00,
2014-03-11 21:22:00,33.0,8.0,-100.00,NE,52,4.0,13.0,34,0.00,,,0.00,0.000000,,2014-03-12 04:22:00,
2014-03-11 21:33:00,33.0,8.0,-100.00,NE,52,4.0,13.0,34,0.00,,,0.00,0.000000,,2014-03-12 04:33:00,
2014-03-11 21:43:00,33.0,8.0,-100.00,NE,52,4.0,13.0,34,0.00,,,0.00,0.000000,,2014-03-12 04:43:00,
2014-03-11 22:12:00,34.0,8.0,-100.00,NE,43,6.0,13.0,33,0.00,,,0.00,0.000000,,2014-03-12 05:12:00,
2014-03-11 22:22:00,34.0,8.0,-100.00,NE,43,6.0,13.0,33,0.00,,,0.00,0.000000,,2014-03-12 05:22:00,
2014-03-11 22:33:00,34.0,8.0,-100.00,NE,43,6.0,13.0,33,0.00,,,0.00,0.000000,,2014-03-12 05:33:00,
2014-03-11 22:43:00,34.0,8.0,-100.00,NE,43,6.0,13.0,33,0.00,,,0.00,0.000000,,2014-03-12 05:43:00,
2014-03-11 23:11:00,35.0,10.0,-100.00,ESE,105,4.0,17.0,35,0.00,,,0.00,0.000000,,2014-03-12 06:11:00,
2014-03-11 23:22:00,35.0,10.0,-100.00,ESE,105,4.0,17.0,35,0.00,,,0.00,0.000000,,2014-03-12 06:22:00,
2014-03-11 23:32:00,35.0,10.0,-100.00,ESE,105,4.0,17.0,35,0.00,,,0.00,0.000000,,2014-03-12 06:32:00,
2014-03-11 23:42:00,35.0,10.0,-100.00,ESE,105,4.0,17.0,35,0.00,,,0.00,0.000000,,2014-03-12 06:42:00,